Year,Month,Day,Hour,Minute,Value (Times are PST for temperature in C)
2009,08,25,00,00,18.10
2009,08,25,00,01,18.10
2009,08,25,00,02,18.20
2009,08,25,00,03,18.20
2009,08,25,00,04,18.20
2009,08,25,00,05,18.20
2009,08,25,00,06,18.20
2009,08,25,00,07,18.20
2009,08,25,00,08,18.20
2009,08,25,00,09,18.20
2009,08,25,00,10,18.20
2009,08,25,00,11,18.20
2009,08,25,00,12,18.10
2009,08,25,00,13,18.00
2009,08,25,00,14,17.90
2009,08,25,00,15,17.90
2009,08,25,00,16,17.90
2009,08,25,00,17,17.80
2009,08,25,00,18,17.80
2009,08,25,00,19,17.80
2009,08,25,00,20,17.70
2009,08,25,00,21,17.70
2009,08,25,00,22,17.70
2009,08,25,00,23,17.70
2009,08,25,00,24,17.70
2009,08,25,00,25,17.80
2009,08,25,00,26,17.80
2009,08,25,00,27,17.90
2009,08,25,00,28,17.90
2009,08,25,00,29,17.90
2009,08,25,00,30,17.90
2009,08,25,00,31,17.90
2009,08,25,00,32,17.90
2009,08,25,00,33,17.90
2009,08,25,00,34,17.90
2009,08,25,00,35,17.90
2009,08,25,00,36,17.90
2009,08,25,00,37,17.90
2009,08,25,00,38,18.00
2009,08,25,00,39,18.10
2009,08,25,00,40,18.10
2009,08,25,00,41,18.10
2009,08,25,00,42,18.10
2009,08,25,00,43,18.10
2009,08,25,00,44,18.10
2009,08,25,00,45,18.10
2009,08,25,00,46,18.00
2009,08,25,00,47,17.90
2009,08,25,00,48,17.90
2009,08,25,00,49,17.90
2009,08,25,00,50,17.90
2009,08,25,00,51,17.90
2009,08,25,00,52,17.90
2009,08,25,00,53,17.90
2009,08,25,00,54,17.90
2009,08,25,00,55,17.80
2009,08,25,00,56,17.80
2009,08,25,00,57,17.80
2009,08,25,00,58,17.80
2009,08,25,00,59,17.70
2009,08,25,01,00,17.60
2009,08,25,01,01,17.50
2009,08,25,01,02,17.50
2009,08,25,01,03,17.50
2009,08,25,01,04,17.40
2009,08,25,01,05,17.40
2009,08,25,01,06,17.40
2009,08,25,01,07,17.40
2009,08,25,01,08,17.40
2009,08,25,01,09,17.40
2009,08,25,01,10,17.30
2009,08,25,01,11,17.30
2009,08,25,01,12,17.30
2009,08,25,01,13,17.30
2009,08,25,01,14,17.30
2009,08,25,01,15,17.30
2009,08,25,01,16,17.30
2009,08,25,01,17,17.30
2009,08,25,01,18,17.20
2009,08,25,01,19,17.20
2009,08,25,01,20,17.10
2009,08,25,01,21,17.10
2009,08,25,01,22,17.10
2009,08,25,01,23,17.00
2009,08,25,01,24,17.00
2009,08,25,01,25,17.00
2009,08,25,01,26,16.90
2009,08,25,01,27,16.90
2009,08,25,01,28,16.90
2009,08,25,01,29,16.90
2009,08,25,01,30,16.80
2009,08,25,01,31,16.80
2009,08,25,01,32,16.80
2009,08,25,01,33,16.80
2009,08,25,01,34,16.70
2009,08,25,01,35,16.70
2009,08,25,01,36,16.70
2009,08,25,01,37,16.70
2009,08,25,01,38,16.70
2009,08,25,01,39,16.70
2009,08,25,01,40,16.70
2009,08,25,01,41,16.60
2009,08,25,01,42,16.60
2009,08,25,01,43,16.60
2009,08,25,01,44,16.40
2009,08,25,01,45,16.40
2009,08,25,01,46,16.40
2009,08,25,01,47,16.40
2009,08,25,01,48,16.30
2009,08,25,01,49,16.30
2009,08,25,01,50,16.30
2009,08,25,01,51,16.20
2009,08,25,01,52,16.20
2009,08,25,01,53,16.20
2009,08,25,01,54,16.20
2009,08,25,01,55,16.10
2009,08,25,01,56,16.10
2009,08,25,01,57,16.10
2009,08,25,01,58,16.10
2009,08,25,01,59,16.10
2009,08,25,02,00,16.10
2009,08,25,02,01,16.10
2009,08,25,02,02,16.00
2009,08,25,02,03,15.90
2009,08,25,02,04,15.90
2009,08,25,02,05,15.90
2009,08,25,02,06,15.90
2009,08,25,02,07,15.90
2009,08,25,02,08,15.90
2009,08,25,02,09,15.90
2009,08,25,02,10,15.90
2009,08,25,02,11,15.90
2009,08,25,02,12,15.90
2009,08,25,02,13,15.90
2009,08,25,02,14,15.90
2009,08,25,02,15,15.80
2009,08,25,02,16,15.80
2009,08,25,02,17,15.80
2009,08,25,02,18,15.80
2009,08,25,02,19,15.80
2009,08,25,02,20,15.70
2009,08,25,02,21,15.60
2009,08,25,02,22,15.60
2009,08,25,02,23,15.50
2009,08,25,02,24,15.50
2009,08,25,02,25,15.50
2009,08,25,02,26,15.50
2009,08,25,02,27,15.50
2009,08,25,02,28,15.50
2009,08,25,02,29,15.50
2009,08,25,02,30,15.50
2009,08,25,02,31,15.50
2009,08,25,02,32,15.50
2009,08,25,02,33,15.50
2009,08,25,02,34,15.50
2009,08,25,02,35,15.50
2009,08,25,02,36,15.50
2009,08,25,02,37,15.50
2009,08,25,02,38,15.50
2009,08,25,02,39,15.50
2009,08,25,02,40,15.50
2009,08,25,02,41,15.50
2009,08,25,02,42,15.50
2009,08,25,02,43,15.40
2009,08,25,02,44,15.40
2009,08,25,02,45,15.30
2009,08,25,02,46,15.30
2009,08,25,02,47,15.20
2009,08,25,02,48,15.20
2009,08,25,02,49,15.10
2009,08,25,02,50,15.10
2009,08,25,02,51,15.10
2009,08,25,02,52,15.00
2009,08,25,02,53,15.00
2009,08,25,02,54,14.90
2009,08,25,02,55,14.90
2009,08,25,02,56,14.80
2009,08,25,02,57,14.80
2009,08,25,02,58,14.80
2009,08,25,02,59,14.80
2009,08,25,03,00,14.80
2009,08,25,03,01,14.80
2009,08,25,03,02,14.80
2009,08,25,03,03,14.80
2009,08,25,03,04,14.70
2009,08,25,03,05,14.70
2009,08,25,03,06,14.70
2009,08,25,03,07,14.70
2009,08,25,03,08,14.70
2009,08,25,03,09,14.70
2009,08,25,03,10,14.60
2009,08,25,03,11,14.60
2009,08,25,03,12,14.60
2009,08,25,03,13,14.60
2009,08,25,03,14,14.70
2009,08,25,03,15,14.70
2009,08,25,03,16,14.70
2009,08,25,03,17,14.80
2009,08,25,03,18,14.80
2009,08,25,03,19,14.80
2009,08,25,03,20,14.80
2009,08,25,03,21,14.80
2009,08,25,03,22,14.80
2009,08,25,03,23,14.80
2009,08,25,03,24,14.80
2009,08,25,03,25,14.80
2009,08,25,03,26,14.80
2009,08,25,03,27,14.80
2009,08,25,03,28,14.70
2009,08,25,03,29,14.70
2009,08,25,03,30,14.70
2009,08,25,03,31,14.70
2009,08,25,03,32,14.60
2009,08,25,03,33,14.60
2009,08,25,03,34,14.60
2009,08,25,03,35,14.60
2009,08,25,03,36,14.60
2009,08,25,03,37,14.60
2009,08,25,03,38,14.60
2009,08,25,03,39,14.60
2009,08,25,03,40,14.60
2009,08,25,03,41,14.70
2009,08,25,03,42,14.80
2009,08,25,03,43,14.80
2009,08,25,03,44,14.80
2009,08,25,03,45,14.80
2009,08,25,03,46,14.80
2009,08,25,03,47,14.80
2009,08,25,03,48,14.80
2009,08,25,03,49,14.80
2009,08,25,03,50,14.80
2009,08,25,03,51,14.80
2009,08,25,03,52,14.70
2009,08,25,03,53,14.70
2009,08,25,03,54,14.70
2009,08,25,03,55,14.70
2009,08,25,03,56,14.60
2009,08,25,03,57,14.60
2009,08,25,03,58,14.60
2009,08,25,03,59,14.70
2009,08,25,04,00,14.70
2009,08,25,04,01,14.80
2009,08,25,04,02,14.80
2009,08,25,04,03,14.80
2009,08,25,04,04,14.90
2009,08,25,04,05,14.90
2009,08,25,04,06,15.00
2009,08,25,04,07,15.00
2009,08,25,04,08,15.10
2009,08,25,04,09,15.10
2009,08,25,04,10,15.20
2009,08,25,04,11,15.30
2009,08,25,04,12,15.30
2009,08,25,04,13,15.30
2009,08,25,04,14,15.30
2009,08,25,04,15,15.40
2009,08,25,04,16,15.40
2009,08,25,04,17,15.40
2009,08,25,04,18,15.40
2009,08,25,04,19,15.40
2009,08,25,04,20,15.40
2009,08,25,04,21,15.40
2009,08,25,04,22,15.40
2009,08,25,04,23,15.40
2009,08,25,04,24,15.40
2009,08,25,04,25,15.40
2009,08,25,04,26,15.40
2009,08,25,04,27,15.30
2009,08,25,04,28,15.30
2009,08,25,04,29,15.30
2009,08,25,04,30,15.30
2009,08,25,04,31,15.30
2009,08,25,04,32,15.30
2009,08,25,04,33,15.30
2009,08,25,04,34,15.20
2009,08,25,04,35,15.20
2009,08,25,04,36,15.20
2009,08,25,04,37,15.10
2009,08,25,04,38,15.10
2009,08,25,04,39,15.10
2009,08,25,04,40,15.10
2009,08,25,04,41,15.00
2009,08,25,04,42,15.00
2009,08,25,04,43,15.00
2009,08,25,04,44,15.00
2009,08,25,04,45,15.00
2009,08,25,04,46,15.00
2009,08,25,04,47,15.00
2009,08,25,04,48,15.00
2009,08,25,04,49,15.00
2009,08,25,04,50,15.00
2009,08,25,04,51,15.10
2009,08,25,04,52,15.10
2009,08,25,04,53,15.10
2009,08,25,04,54,15.10
2009,08,25,04,55,15.10
2009,08,25,04,56,15.10
2009,08,25,04,57,15.20
2009,08,25,04,58,15.20
2009,08,25,04,59,15.20
2009,08,25,05,00,15.20
2009,08,25,05,01,15.20
2009,08,25,05,02,15.20
2009,08,25,05,03,15.20
2009,08,25,05,04,15.20
2009,08,25,05,05,15.10
2009,08,25,05,06,15.10
2009,08,25,05,07,15.10
2009,08,25,05,08,15.10
2009,08,25,05,09,15.00
2009,08,25,05,10,15.00
2009,08,25,05,11,15.10
2009,08,25,05,12,15.10
2009,08,25,05,13,15.00
2009,08,25,05,14,15.00
2009,08,25,05,15,15.00
2009,08,25,05,16,15.00
2009,08,25,05,17,15.00
2009,08,25,05,18,14.90
2009,08,25,05,19,14.90
2009,08,25,05,20,14.90
2009,08,25,05,21,14.80
2009,08,25,05,22,14.80
2009,08,25,05,23,14.80
2009,08,25,05,24,14.80
2009,08,25,05,25,14.80
2009,08,25,05,26,14.80
2009,08,25,05,27,14.80
2009,08,25,05,28,14.80
2009,08,25,05,29,14.70
2009,08,25,05,30,14.70
2009,08,25,05,31,14.70
2009,08,25,05,32,14.60
2009,08,25,05,33,14.60
2009,08,25,05,34,14.50
2009,08,25,05,35,14.50
2009,08,25,05,36,14.40
2009,08,25,05,37,14.40
2009,08,25,05,38,14.40
2009,08,25,05,39,14.30
2009,08,25,05,40,14.30
2009,08,25,05,41,14.30
2009,08,25,05,42,14.20
2009,08,25,05,43,14.20
2009,08,25,05,44,14.20
2009,08,25,05,45,14.20
2009,08,25,05,46,14.20
2009,08,25,05,47,14.10
2009,08,25,05,48,14.10
2009,08,25,05,49,14.10
2009,08,25,05,50,14.00
2009,08,25,05,51,14.00
2009,08,25,05,52,13.90
2009,08,25,05,53,13.90
2009,08,25,05,54,13.80
2009,08,25,05,55,13.80
2009,08,25,05,56,13.70
2009,08,25,05,57,13.70
2009,08,25,05,58,13.70
2009,08,25,05,59,13.70
2009,08,25,06,00,13.70
2009,08,25,06,01,13.70
2009,08,25,06,02,13.70
2009,08,25,06,03,13.70
2009,08,25,06,04,13.70
2009,08,25,06,05,13.70
2009,08,25,06,06,13.70
2009,08,25,06,07,13.70
2009,08,25,06,08,13.70
2009,08,25,06,09,13.70
2009,08,25,06,10,13.70
2009,08,25,06,11,13.70
2009,08,25,06,12,13.70
2009,08,25,06,13,13.70
2009,08,25,06,14,13.70
2009,08,25,06,15,13.70
2009,08,25,06,16,13.70
2009,08,25,06,17,13.70
2009,08,25,06,18,13.70
2009,08,25,06,19,13.70
2009,08,25,06,20,13.70
2009,08,25,06,21,13.70
2009,08,25,06,22,13.70
2009,08,25,06,23,13.70
2009,08,25,06,24,13.70
2009,08,25,06,25,13.70
2009,08,25,06,26,13.70
2009,08,25,06,27,13.70
2009,08,25,06,28,13.70
2009,08,25,06,29,13.70
2009,08,25,06,30,13.70
2009,08,25,06,31,13.60
2009,08,25,06,32,13.60
2009,08,25,06,33,13.60
2009,08,25,06,34,13.60
2009,08,25,06,35,13.50
2009,08,25,06,36,13.50
2009,08,25,06,37,13.50
2009,08,25,06,38,13.50
2009,08,25,06,39,13.40
2009,08,25,06,40,13.40
2009,08,25,06,41,13.40
2009,08,25,06,42,13.40
2009,08,25,06,43,13.30
2009,08,25,06,44,13.30
2009,08,25,06,45,13.30
2009,08,25,06,46,13.30
2009,08,25,06,47,13.30
2009,08,25,06,48,13.20
2009,08,25,06,49,13.20
2009,08,25,06,50,13.20
2009,08,25,06,51,13.20
2009,08,25,06,52,13.10
2009,08,25,06,53,13.10
2009,08,25,06,54,13.10
2009,08,25,06,55,13.10
2009,08,25,06,56,13.10
2009,08,25,06,57,13.10
2009,08,25,06,58,13.10
2009,08,25,06,59,13.10
2009,08,25,07,00,13.10
2009,08,25,07,01,13.10
2009,08,25,07,02,13.10
2009,08,25,07,03,13.10
2009,08,25,07,04,13.00
2009,08,25,07,05,13.00
2009,08,25,07,06,13.00
2009,08,25,07,07,13.00
2009,08,25,07,08,13.00
2009,08,25,07,09,13.00
2009,08,25,07,10,13.00
2009,08,25,07,11,13.00
2009,08,25,07,12,13.00
2009,08,25,07,13,13.00
2009,08,25,07,14,13.00
2009,08,25,07,15,13.00
2009,08,25,07,16,12.90
2009,08,25,07,17,12.90
2009,08,25,07,18,12.90
2009,08,25,07,19,12.90
2009,08,25,07,20,12.90
2009,08,25,07,21,12.90
2009,08,25,07,22,12.90
2009,08,25,07,23,13.00
2009,08,25,07,24,13.00
2009,08,25,07,25,13.00
2009,08,25,07,26,13.00
2009,08,25,07,27,13.00
2009,08,25,07,28,13.00
2009,08,25,07,29,13.00
2009,08,25,07,30,13.10
2009,08,25,07,31,13.10
2009,08,25,07,32,13.10
2009,08,25,07,33,13.10
2009,08,25,07,34,13.10
2009,08,25,07,35,13.10
2009,08,25,07,36,13.10
2009,08,25,07,37,13.10
2009,08,25,07,38,13.10
2009,08,25,07,39,13.10
2009,08,25,07,40,13.10
2009,08,25,07,41,13.10
2009,08,25,07,42,13.10
2009,08,25,07,43,13.20
2009,08,25,07,44,13.20
2009,08,25,07,45,13.20
2009,08,25,07,46,13.20
2009,08,25,07,47,13.20
2009,08,25,07,48,13.20
2009,08,25,07,49,13.20
2009,08,25,07,50,13.20
2009,08,25,07,51,13.20
2009,08,25,07,52,13.20
2009,08,25,07,53,13.20
2009,08,25,07,54,13.30
2009,08,25,07,55,13.30
2009,08,25,07,56,13.40
2009,08,25,07,57,13.50
2009,08,25,07,58,13.60
2009,08,25,07,59,13.60
2009,08,25,08,00,13.70
2009,08,25,08,01,13.70
2009,08,25,08,02,13.80
2009,08,25,08,03,13.80
2009,08,25,08,04,13.90
2009,08,25,08,05,13.90
2009,08,25,08,06,14.00
2009,08,25,08,07,14.00
2009,08,25,08,08,14.00
2009,08,25,08,09,14.00
2009,08,25,08,10,14.00
2009,08,25,08,11,14.00
2009,08,25,08,12,14.00
2009,08,25,08,13,13.90
2009,08,25,08,14,13.90
2009,08,25,08,15,13.90
2009,08,25,08,16,13.90
2009,08,25,08,17,13.90
2009,08,25,08,18,13.90
2009,08,25,08,19,13.90
2009,08,25,08,20,14.00
2009,08,25,08,21,14.00
2009,08,25,08,22,14.00
2009,08,25,08,23,14.10
2009,08,25,08,24,14.10
2009,08,25,08,25,14.10
2009,08,25,08,26,14.10
2009,08,25,08,27,14.20
2009,08,25,08,28,14.20
2009,08,25,08,29,14.20
2009,08,25,08,30,14.20
2009,08,25,08,31,14.20
2009,08,25,08,32,14.20
2009,08,25,08,33,14.20
2009,08,25,08,34,14.10
2009,08,25,08,35,14.10
2009,08,25,08,36,14.10
2009,08,25,08,37,14.10
2009,08,25,08,38,14.10
2009,08,25,08,39,14.10
2009,08,25,08,40,14.10
2009,08,25,08,41,14.10
2009,08,25,08,42,14.10
2009,08,25,08,43,14.20
2009,08,25,08,44,14.20
2009,08,25,08,45,14.20
2009,08,25,08,46,14.20
2009,08,25,08,47,14.20
2009,08,25,08,48,14.20
2009,08,25,08,49,14.30
2009,08,25,08,50,14.40
2009,08,25,08,51,14.50
2009,08,25,08,52,14.50
2009,08,25,08,53,14.60
2009,08,25,08,54,14.60
2009,08,25,08,55,14.70
2009,08,25,08,56,14.80
2009,08,25,08,57,14.80
2009,08,25,08,58,14.90
2009,08,25,08,59,15.00
2009,08,25,09,00,15.00
2009,08,25,09,01,15.00
2009,08,25,09,02,15.10
2009,08,25,09,03,15.10
2009,08,25,09,04,15.20
2009,08,25,09,05,15.20
2009,08,25,09,06,15.30
2009,08,25,09,07,15.30
2009,08,25,09,08,15.30
2009,08,25,09,09,15.30
2009,08,25,09,10,15.30
2009,08,25,09,11,15.30
2009,08,25,09,12,15.30
2009,08,25,09,13,15.30
2009,08,25,09,14,15.30
2009,08,25,09,15,15.30
2009,08,25,09,16,15.30
2009,08,25,09,17,15.30
2009,08,25,09,18,15.20
2009,08,25,09,19,15.20
2009,08,25,09,20,15.20
2009,08,25,09,21,15.20
2009,08,25,09,22,15.10
2009,08,25,09,23,15.10
2009,08,25,09,24,15.10
2009,08,25,09,25,15.10
2009,08,25,09,26,15.10
2009,08,25,09,27,15.10
2009,08,25,09,28,15.10
2009,08,25,09,29,15.10
2009,08,25,09,30,15.10
2009,08,25,09,31,15.10
2009,08,25,09,32,15.10
2009,08,25,09,33,15.10
2009,08,25,09,34,15.10
2009,08,25,09,35,15.10
2009,08,25,09,36,15.20
2009,08,25,09,37,15.30
2009,08,25,09,38,15.30
2009,08,25,09,39,15.40
2009,08,25,09,40,15.40
2009,08,25,09,41,15.50
2009,08,25,09,42,15.50
2009,08,25,09,43,15.60
2009,08,25,09,44,15.60
2009,08,25,09,45,15.60
2009,08,25,09,46,15.60
2009,08,25,09,47,15.60
2009,08,25,09,48,15.60
2009,08,25,09,49,15.60
2009,08,25,09,50,15.60
2009,08,25,09,51,15.70
2009,08,25,09,52,15.70
2009,08,25,09,53,15.70
2009,08,25,09,54,15.80
2009,08,25,09,55,15.80
2009,08,25,09,56,15.80
2009,08,25,09,57,16.00
2009,08,25,09,58,16.10
2009,08,25,09,59,16.10
2009,08,25,10,00,16.20
2009,08,25,10,01,16.20
2009,08,25,10,02,16.20
2009,08,25,10,03,16.20
2009,08,25,10,04,16.20
2009,08,25,10,05,16.20
2009,08,25,10,06,16.10
2009,08,25,10,07,16.20
2009,08,25,10,08,16.20
2009,08,25,10,09,16.20
2009,08,25,10,10,16.20
2009,08,25,10,11,16.20
2009,08,25,10,12,16.20
2009,08,25,10,13,16.20
2009,08,25,10,14,16.10
2009,08,25,10,15,16.10
2009,08,25,10,16,16.10
2009,08,25,10,17,16.00
2009,08,25,10,18,15.80
2009,08,25,10,19,15.70
2009,08,25,10,20,15.70
2009,08,25,10,21,15.70
2009,08,25,10,22,15.70
2009,08,25,10,23,15.80
2009,08,25,10,24,15.80
2009,08,25,10,25,15.90
2009,08,25,10,26,15.80
2009,08,25,10,27,15.80
2009,08,25,10,28,15.80
2009,08,25,10,29,15.80
2009,08,25,10,30,15.80
2009,08,25,10,31,15.70
2009,08,25,10,32,15.70
2009,08,25,10,33,15.60
2009,08,25,10,34,15.60
2009,08,25,10,35,15.60
2009,08,25,10,36,15.70
2009,08,25,10,37,15.80
2009,08,25,10,38,15.90
2009,08,25,10,39,16.00
2009,08,25,10,40,16.10
2009,08,25,10,41,16.20
2009,08,25,10,42,16.30
2009,08,25,10,43,16.40
2009,08,25,10,44,16.40
2009,08,25,10,45,16.40
2009,08,25,10,46,16.40
2009,08,25,10,47,16.40
2009,08,25,10,48,16.40
2009,08,25,10,49,16.50
2009,08,25,10,50,16.70
2009,08,25,10,51,16.70
2009,08,25,10,52,16.80
2009,08,25,10,53,16.90
2009,08,25,10,54,17.00
2009,08,25,10,55,17.10
2009,08,25,10,56,17.10
2009,08,25,10,57,17.30
2009,08,25,10,58,17.30
2009,08,25,10,59,17.30
2009,08,25,11,00,17.30
2009,08,25,11,01,17.30
2009,08,25,11,02,17.30
2009,08,25,11,03,17.30
2009,08,25,11,04,17.30
2009,08,25,11,05,17.40
2009,08,25,11,06,17.40
2009,08,25,11,07,17.30
2009,08,25,11,08,17.20
2009,08,25,11,09,17.20
2009,08,25,11,10,17.20
2009,08,25,11,11,17.20
2009,08,25,11,12,17.20
2009,08,25,11,13,17.20
2009,08,25,11,14,17.20
2009,08,25,11,15,17.10
2009,08,25,11,16,17.00
2009,08,25,11,17,17.00
2009,08,25,11,18,17.00
2009,08,25,11,19,17.00
2009,08,25,11,20,17.10
2009,08,25,11,21,17.20
2009,08,25,11,22,17.30
2009,08,25,11,23,17.30
2009,08,25,11,24,17.30
2009,08,25,11,25,17.40
2009,08,25,11,26,17.40
2009,08,25,11,27,17.50
2009,08,25,11,28,17.50
2009,08,25,11,29,17.60
2009,08,25,11,30,17.70
2009,08,25,11,31,17.70
2009,08,25,11,32,17.70
2009,08,25,11,33,17.80
2009,08,25,11,34,17.80
2009,08,25,11,35,17.80
2009,08,25,11,36,17.90
2009,08,25,11,37,18.10
2009,08,25,11,38,18.20
2009,08,25,11,39,18.20
2009,08,25,11,40,18.40
2009,08,25,11,41,18.50
2009,08,25,11,42,18.60
2009,08,25,11,43,18.70
2009,08,25,11,44,18.90
2009,08,25,11,45,19.00
2009,08,25,11,46,19.10
2009,08,25,11,47,19.10
2009,08,25,11,48,19.10
2009,08,25,11,49,19.20
2009,08,25,11,50,19.30
2009,08,25,11,51,19.30
2009,08,25,11,52,19.30
2009,08,25,11,53,19.30
2009,08,25,11,54,19.30
2009,08,25,11,55,19.40
2009,08,25,11,56,19.40
2009,08,25,11,57,19.50
2009,08,25,11,58,19.50
2009,08,25,11,59,19.50
2009,08,25,12,00,19.50
2009,08,25,12,01,19.50
2009,08,25,12,02,19.50
2009,08,25,12,03,19.40
2009,08,25,12,04,19.40
2009,08,25,12,05,19.40
2009,08,25,12,06,19.30
2009,08,25,12,07,19.30
2009,08,25,12,08,19.40
2009,08,25,12,09,19.40
2009,08,25,12,10,19.40
2009,08,25,12,11,19.40
2009,08,25,12,12,19.40
2009,08,25,12,13,19.50
2009,08,25,12,14,19.60
2009,08,25,12,15,19.60
2009,08,25,12,16,19.80
2009,08,25,12,17,19.90
2009,08,25,12,18,19.90
2009,08,25,12,19,20.00
2009,08,25,12,20,20.10
2009,08,25,12,21,20.20
2009,08,25,12,22,20.20
2009,08,25,12,23,20.20
2009,08,25,12,24,20.20
2009,08,25,12,25,20.20
2009,08,25,12,26,20.20
2009,08,25,12,27,20.20
2009,08,25,12,28,20.20
2009,08,25,12,29,20.20
2009,08,25,12,30,20.20
2009,08,25,12,31,20.20
2009,08,25,12,32,20.20
2009,08,25,12,33,20.20
2009,08,25,12,34,20.30
2009,08,25,12,35,20.30
2009,08,25,12,36,20.30
2009,08,25,12,37,20.30
2009,08,25,12,38,20.30
2009,08,25,12,39,20.30
2009,08,25,12,40,20.40
2009,08,25,12,41,20.40
2009,08,25,12,42,20.50
2009,08,25,12,43,20.50
2009,08,25,12,44,20.50
2009,08,25,12,45,20.50
2009,08,25,12,46,20.50
2009,08,25,12,47,20.60
2009,08,25,12,48,20.70
2009,08,25,12,49,20.70
2009,08,25,12,50,20.80
2009,08,25,12,51,20.80
2009,08,25,12,52,20.90
2009,08,25,12,53,20.90
2009,08,25,12,54,20.90
2009,08,25,12,55,20.90
2009,08,25,12,56,20.90
2009,08,25,12,57,20.80
2009,08,25,12,58,20.80
2009,08,25,12,59,20.70
2009,08,25,13,00,20.70
2009,08,25,13,01,20.80
2009,08,25,13,02,20.80
2009,08,25,13,03,20.90
2009,08,25,13,04,21.00
2009,08,25,13,05,20.90
2009,08,25,13,06,20.90
2009,08,25,13,07,20.90
2009,08,25,13,08,20.90
2009,08,25,13,09,20.90
2009,08,25,13,10,20.90
2009,08,25,13,11,20.90
2009,08,25,13,12,20.90
2009,08,25,13,13,20.90
2009,08,25,13,14,20.80
2009,08,25,13,15,20.70
2009,08,25,13,16,20.70
2009,08,25,13,17,20.60
2009,08,25,13,18,20.60
2009,08,25,13,19,20.60
2009,08,25,13,20,20.70
2009,08,25,13,21,20.80
2009,08,25,13,22,20.80
2009,08,25,13,23,20.90
2009,08,25,13,24,21.00
2009,08,25,13,25,21.00
2009,08,25,13,26,21.10
2009,08,25,13,27,21.10
2009,08,25,13,28,21.20
2009,08,25,13,29,21.20
2009,08,25,13,30,21.30
2009,08,25,13,31,21.20
2009,08,25,13,32,21.20
2009,08,25,13,33,21.20
2009,08,25,13,34,21.10
2009,08,25,13,35,21.10
2009,08,25,13,36,21.10
2009,08,25,13,37,21.10
2009,08,25,13,38,21.10
2009,08,25,13,39,21.20
2009,08,25,13,40,21.30
2009,08,25,13,41,21.30
2009,08,25,13,42,21.30
2009,08,25,13,43,21.20
2009,08,25,13,44,21.10
2009,08,25,13,45,21.00
2009,08,25,13,46,20.90
2009,08,25,13,47,20.90
2009,08,25,13,48,20.90
2009,08,25,13,49,20.90
2009,08,25,13,50,20.90
2009,08,25,13,51,21.00
2009,08,25,13,52,21.10
2009,08,25,13,53,21.10
2009,08,25,13,54,21.20
2009,08,25,13,55,21.20
2009,08,25,13,56,21.20
2009,08,25,13,57,21.20
2009,08,25,13,58,21.20
2009,08,25,13,59,21.20
2009,08,25,14,00,21.20
2009,08,25,14,01,21.20
2009,08,25,14,02,21.20
2009,08,25,14,03,21.20
2009,08,25,14,04,21.20
2009,08,25,14,05,21.30
2009,08,25,14,06,21.30
2009,08,25,14,07,21.30
2009,08,25,14,08,21.30
2009,08,25,14,09,21.30
2009,08,25,14,10,21.30
2009,08,25,14,11,21.40
2009,08,25,14,12,21.40
2009,08,25,14,13,21.30
2009,08,25,14,14,21.30
2009,08,25,14,15,21.30
2009,08,25,14,16,21.30
2009,08,25,14,17,21.30
2009,08,25,14,18,21.30
2009,08,25,14,19,21.30
2009,08,25,14,20,21.30
2009,08,25,14,21,21.30
2009,08,25,14,22,21.40
2009,08,25,14,23,21.30
2009,08,25,14,24,21.30
2009,08,25,14,25,21.30
2009,08,25,14,26,21.30
2009,08,25,14,27,21.40
2009,08,25,14,28,21.40
2009,08,25,14,29,21.40
2009,08,25,14,30,21.40
2009,08,25,14,31,21.30
2009,08,25,14,32,21.30
2009,08,25,14,33,21.20
2009,08,25,14,34,21.20
2009,08,25,14,35,21.10
2009,08,25,14,36,21.10
2009,08,25,14,37,21.10
2009,08,25,14,38,21.10
2009,08,25,14,39,21.10
2009,08,25,14,40,21.10
2009,08,25,14,41,21.10
2009,08,25,14,42,21.10
2009,08,25,14,43,21.00
2009,08,25,14,44,21.00
2009,08,25,14,45,21.00
2009,08,25,14,46,21.10
2009,08,25,14,47,21.10
2009,08,25,14,48,21.10
2009,08,25,14,49,21.10
2009,08,25,14,50,21.20
2009,08,25,14,51,21.20
2009,08,25,14,52,21.20
2009,08,25,14,53,21.20
2009,08,25,14,54,21.20
2009,08,25,14,55,21.30
2009,08,25,14,56,21.30
2009,08,25,14,57,21.30
2009,08,25,14,58,21.50
2009,08,25,14,59,21.60
2009,08,25,15,00,21.60
2009,08,25,15,01,21.60
2009,08,25,15,02,21.60
2009,08,25,15,03,21.50
2009,08,25,15,04,21.40
2009,08,25,15,05,21.30
2009,08,25,15,06,21.30
2009,08,25,15,07,21.30
2009,08,25,15,08,21.30
2009,08,25,15,09,21.30
2009,08,25,15,10,21.40
2009,08,25,15,11,21.40
2009,08,25,15,12,21.50
2009,08,25,15,13,21.60
2009,08,25,15,14,21.60
2009,08,25,15,15,21.60
2009,08,25,15,16,21.70
2009,08,25,15,17,21.70
2009,08,25,15,18,21.70
2009,08,25,15,19,21.70
2009,08,25,15,20,21.70
2009,08,25,15,21,21.80
2009,08,25,15,22,21.90
2009,08,25,15,23,21.90
2009,08,25,15,24,21.90
2009,08,25,15,25,22.00
2009,08,25,15,26,22.00
2009,08,25,15,27,22.00
2009,08,25,15,28,22.10
2009,08,25,15,29,22.10
2009,08,25,15,30,22.10
2009,08,25,15,31,22.20
2009,08,25,15,32,22.20
2009,08,25,15,33,22.20
2009,08,25,15,34,22.10
2009,08,25,15,35,22.10
2009,08,25,15,36,22.00
2009,08,25,15,37,21.90
2009,08,25,15,38,21.80
2009,08,25,15,39,21.80
2009,08,25,15,40,21.80
2009,08,25,15,41,21.70
2009,08,25,15,42,21.70
2009,08,25,15,43,21.60
2009,08,25,15,44,21.60
2009,08,25,15,45,21.60
2009,08,25,15,46,21.60
2009,08,25,15,47,21.60
2009,08,25,15,48,21.60
2009,08,25,15,49,21.60
2009,08,25,15,50,21.70
2009,08,25,15,51,21.80
2009,08,25,15,52,21.90
2009,08,25,15,53,21.90
2009,08,25,15,54,22.00
2009,08,25,15,55,22.10
2009,08,25,15,56,22.10
2009,08,25,15,57,22.20
2009,08,25,15,58,22.20
2009,08,25,15,59,22.20
2009,08,25,16,00,22.10
2009,08,25,16,01,22.10
2009,08,25,16,02,22.10
2009,08,25,16,03,22.10
2009,08,25,16,04,22.20
2009,08,25,16,05,22.30
2009,08,25,16,06,22.30
2009,08,25,16,07,22.20
2009,08,25,16,08,22.20
2009,08,25,16,09,22.20
2009,08,25,16,10,22.10
2009,08,25,16,11,22.10
2009,08,25,16,12,22.10
2009,08,25,16,13,22.10
2009,08,25,16,14,22.20
2009,08,25,16,15,22.20
2009,08,25,16,16,22.20
2009,08,25,16,17,22.20
2009,08,25,16,18,22.10
2009,08,25,16,19,21.80
2009,08,25,16,20,21.70
2009,08,25,16,21,21.50
2009,08,25,16,22,21.20
2009,08,25,16,23,20.80
2009,08,25,16,24,20.50
2009,08,25,16,25,20.30
2009,08,25,16,26,20.00
2009,08,25,16,27,19.70
2009,08,25,16,28,19.60
2009,08,25,16,29,19.50
2009,08,25,16,30,19.40
2009,08,25,16,31,19.30
2009,08,25,16,32,19.10
2009,08,25,16,33,19.00
2009,08,25,16,34,18.90
2009,08,25,16,35,18.70
2009,08,25,16,36,18.60
2009,08,25,16,37,18.50
2009,08,25,16,38,18.50
2009,08,25,16,39,18.50
2009,08,25,16,40,18.50
2009,08,25,16,41,18.40
2009,08,25,16,42,18.30
2009,08,25,16,43,18.30
2009,08,25,16,44,18.40
2009,08,25,16,45,18.40
2009,08,25,16,46,18.20
2009,08,25,16,47,18.20
2009,08,25,16,48,18.20
2009,08,25,16,49,18.20
2009,08,25,16,50,18.30
2009,08,25,16,51,18.20
2009,08,25,16,52,18.20
2009,08,25,16,53,18.00
2009,08,25,16,54,17.80
2009,08,25,16,55,17.70
2009,08,25,16,56,17.50
2009,08,25,16,57,17.30
2009,08,25,16,58,17.10
2009,08,25,16,59,16.80
2009,08,25,17,00,16.60
2009,08,25,17,01,16.40
2009,08,25,17,02,16.40
2009,08,25,17,03,16.30
2009,08,25,17,04,16.20
2009,08,25,17,05,16.20
2009,08,25,17,06,16.10
2009,08,25,17,07,16.00
2009,08,25,17,08,15.90
2009,08,25,17,09,15.90
2009,08,25,17,10,15.80
2009,08,25,17,11,15.80
2009,08,25,17,12,15.80
2009,08,25,17,13,15.70
2009,08,25,17,14,15.70
2009,08,25,17,15,15.60
2009,08,25,17,16,15.70
2009,08,25,17,17,15.60
2009,08,25,17,18,15.50
2009,08,25,17,19,15.50